This is the latest recevied weather packets stored in our database for station/object NK2J. If no packets are shown the sender has not sent any weather packets the latest 1 day(s).
| Time | Temp. | Humidity | Pressure | Rain* | Wind** | Luminosity | Snow |
|---|---|---|---|---|---|---|---|
| 1778094143 | 24.44° C | 29% | 1017.3 hPa | 0 mm | - | 768 W/m² | - |
| 1778092021 | 23.33° C | 30% | 1018.1 hPa | 0 mm | - | 756 W/m² | - |
| 1778091718 | 22.78° C | 29% | 1018 hPa | 0 mm | - | 753 W/m² | - |
| 1778091113 | 22.78° C | 30% | 1018.2 hPa | 0 mm | - | 744 W/m² | - |
| 1778090810 | 23.33° C | 30% | 1018.3 hPa | 0 mm | - | 736 W/m² | - |
| 1778090506 | 23.89° C | 32% | 1018.3 hPa | 0 mm | - | 734 W/m² | - |
| 1778090202 | 22.78° C | 31% | 1018.2 hPa | 0 mm | - | 729 W/m² | - |
| 1778089899 | 22.22° C | 31% | 1018.2 hPa | 0 mm | - | 727 W/m² | - |
| 1778089592 | 22.22° C | 32% | 1018.3 hPa | 0 mm | - | 719 W/m² | - |
| 1778088380 | 22.22° C | 33% | 1018.1 hPa | 0 mm | - | 686 W/m² | - |
| 1778088076 | 22.22° C | 32% | 1018.2 hPa | 0 mm | - | 676 W/m² | - |
| 1778086254 | 21.67° C | 33% | 1018.1 hPa | 0 mm | - | 624 W/m² | - |
| 1778085344 | 22.22° C | 33% | 1018.2 hPa | 0 mm | - | 588 W/m² | - |
| 1778084427 | 21.11° C | 34% | 1018.2 hPa | 0 mm | - | 550 W/m² | - |
| 1778082909 | 20.56° C | 36% | 1018.1 hPa | 0 mm | - | 480 W/m² | - |
| 1778081498 | 20° C | 37% | 1018.2 hPa | 0 mm | - | 406 W/m² | - |
| 1778080591 | 20° C | 38% | 1018.3 hPa | 0 mm | - | 360 W/m² | - |
| 1778079075 | 18.33° C | 40% | 1017.9 hPa | 0 mm | - | 277 W/m² | - |
| 1778078469 | 17.78° C | 42% | 1018.1 hPa | 0 mm | - | 242 W/m² | - |
| 1778078167 | 16.67° C | 43% | 1017.8 hPa | 0 mm | - | 211 W/m² | - |
| 1778076656 | 16.11° C | 45% | 1017.8 hPa | 0 mm | - | 129 W/m² | - |
| 1778076353 | 15.56° C | 47% | 1017.7 hPa | 0 mm | - | 99 W/m² | - |
| 1778075140 | 15° C | 48% | 1017.4 hPa | 0 mm | - | 62 W/m² | - |
| 1778074533 | 13.89° C | 49% | 1017.2 hPa | 0 mm | - | 42 W/m² | - |
| 1778074230 | 13.33° C | 50% | 1017.5 hPa | 0 mm | - | 39 W/m² | - |
* Rain latest hour (hover to see other rain measurements)
** Current wind speed in m/s (hover to see current wind gust speed)